sat.trackr.live / text

‹ back to catalog

GAOFEN-3 03

NORAD 52200 · 2022-035A

PAYLOAD ACTIVE UNKNOWN

§ Identity

Operator
Country
PRC
Launch date
2022-04-06
Launch site
JSC
Launch vehicle
Mass (kg)
RCS (m²)

External: N2YO · Heavens-Above · Gunter

§ Orbital elements

Epoch: 2026-09-20T23:18:40.709664Z

Period
99.85 min
Inclination
98.4107°
Eccentricity
0.0000860
Mean motion
14.42217418 rev/d
Perigee alt
750.6 km
Apogee alt
751.8 km
Semi-major
7,129.3 km
B*
1.8776e-6
RAAN
271.1761°
Arg perigee
82.2897°
Mean anomaly
277.8390°
Rev number
23,465

§ Raw data

GAOFEN-3 031 52200U 22035A   26263.97130451 -.00000037  00000+0  18776-5 0  99942 52200  98.4107 271.1761 0000860  82.2897 277.8390 14.42217418234655

JSON: /api/v1/satellites/52200 · /tle

For live sub-satellite position, see the globe view (requires WebGL).

§ Visibility from observer

Set your observer location to see the next 7 days of passes ≥ 10°. The values pass through the URL so the page stays shareable.

No JS? Fill the form by hand. The geolocation button needs JavaScript.

§ Radio — SatNOGS DB

ModeDescriptionDownlinkUplink
FM S-band telemetry 2.208 GHz

1 transmitter · refreshed weekly from db.satnogs.org